Regional Weather Roundup
Issued by NWS

Home | Current Version | Previous Version | Graphics & Text | Print | Product List | Glossary Off
Versions: 1 2 3 4 5 6 7 8 9 10 11 12 13 14 15 16 17 18 19 20 21 22 23 24 25 26 27 28 29 30 31 32 33 34 35 36 37 38 39 40 41 42 43 44 45 46 47 48 49 50

000
ASUS43 KLSX 040710
RWRMO

WEATHER SUMMARY FOR MISSOURI
NATIONAL WEATHER SERVICE SPRINGFIELD MO
200 AM CDT FRI SEP 04 2015

NOTE: "FAIR" INDICATES FEW OR NO CLOUDS BELOW 12,000 FEET WITH NO
       SIGNIFICANT WEATHER AND/OR OBSTRUCTIONS TO VISIBILITY.
       CURRENT SKY AND/OR WEATHER CONDITIONS ARE NOT AVAILABLE FOR
       CHILLICOTHE AND FARMINGTON.

MOZ001>031-035>038-043-044-053-054-040800-
...NORTHERN AND WESTERN MISSOURI...

CITY           SKY/WX    TMP DP  RH WIND       PRES   REMARKS
KANSAS CTY INT MOCLDY    73  67  81 S9        29.93S
KANSAS C DTWN  PTCLDY    78  68  71 S6        29.92S
LEE`S SUMMIT   PTCLDY    77  67  71 S7        29.95S
ST JOSEPH      PTCLDY    72  68  87 S6        29.91S
CHILLICOTHE      N/A     72  69  90 CALM      29.95S
KIRKSVILLE     CLEAR     70  66  87 S6        29.97R

$$
MOZ066>068-077>081-088>096-101>105-040800-
...SOUTHWEST MISSOURI...

CITY           SKY/WX    TMP DP  RH WIND       PRES   REMARKS
SPRINGFIELD    CLEAR     72  67  84 SE7       29.98S
JOPLIN         CLEAR     75  67  76 SE5       29.96S

$$
MOZ032>034-039>042-045>050-055>058-069>072-040800-
...CENTRAL MISSOURI...

CITY           SKY/WX    TMP DP  RH WIND       PRES   REMARKS
COLUMBIA       CLEAR     72  69  90 S6        29.97S
JEFFERSON CITY CLEAR     71  69  93 SE3       29.96R
ROLLA          CLEAR     72  67  84 S6        29.98S
SEDALIA        PTCLDY    73  68  84 S6        29.97S
WHITEMAN AFB   PTCLDY    72  68  85 S5        29.94S
WARRENSBURG    PTCLDY    72  68  88 SE5       29.94F
OSAGE BEACH    CLEAR     72  66  83 CALM      29.98S

$$
MOZ051-052-059>065-040800-
...EAST CENTRAL MISSOURI...

CITY           SKY/WX    TMP DP  RH WIND       PRES   REMARKS
ST LOUIS INTL  CLEAR     80  69  69 CALM      29.97S
SPIRIT OF STL  CLEAR     70  70 100 CALM      29.95S
ST CHARLES     CLEAR     73  72  96 CALM      29.95S

$$
MOZ072>076-082>087-097>100-106>115-040800-
...SOUTH CENTRAL AND SOUTHEAST MISSOURI...

CITY           SKY/WX    TMP DP  RH WIND       PRES   REMARKS
CAPE GIRARDEAU CLEAR     69  68  96 CALM      29.96S FOG
FARMINGTON     CLEAR     70  70 100 CALM      30.02S
POPLAR BLUFF   CLEAR     70  68  93 CALM      29.96S
WEST PLAINS    CLEAR     69  66  90 CALM      30.02S

$$


USA.gov is the U.S. government's official web portal to all federal, state and local government web resources and services.